Location: Buffign�court
(47.8126°N, 6.0176°E)
Time: 20:39:20
(UTC+00:00)

Cosmos 405 - Pass Details

Date: 16 June 2021
Orbit: 446 x 460 km, 81.3° (Epoch: 23 July)

Event Time Altitude Azimuth Distance (km) Brightness Sun altitude
Rises 20:53:24 0° 359° (N) 2,465 7.6 -9.9°
Reaches altitude 10° 20:55:45 10° 14° (NNE) 1,586 6.2 -10.2°
Maximum altitude 20:58:38 24° 70° (ENE) 975 4.4 -10.4°
Enters shadow 21:00:47 14° 119° (ESE) 1,350 4.8 -10.7°
